Wind_Speed
14 14 14 12 13 15 15 17 23 25 28 30 32 35 36 35 34 33 33 35 35 34 33 32 30 28 25 23 20 19 19 18 18 17 15 13 12 11 11 11 11 11 10 9 9 8 7 6 7 7 6 6 6 6 6 6 6 7 7 8 9 10 10
13 13 13 12 13 14 15 20 25 27 29 31 32 35 36 36 36 36 36 37 37 37 36 35 32 30 27 24 22 21 21 20 19 18 15 13 13 12 12 11 11 11 10 9 9 9 9 9 8 7 7 8 7 7 7 7 7 8 8 9 10 11 12
13 13 13 13 14 15 16 19 24 27 30 31 32 35 37 39 41 41 41 40 39 39 38 37 35 33 30 26 25 25 23 22 21 19 16 15 14 13 12 11 11 10 10 10 10 9 9 8 8 8 8 8 9 8 8 8 8 9 9 10 11 12 13
14 15 15 15 15 15 15 18 23 27 31 34 37 39 41 43 44 44 44 44 43 41 41 40 38 35 32 29 28 28 26 24 22 20 17 16 15 14 13 12 11 11 10 10 10 9 9 8 9 9 9 9 10 9 9 9 9 10 10 11 12 14 14
14 14 13 13 13 12 13 17 23 28 31 34 37 40 42 43 42 42 43 44 45 45 44 42 39 37 34 32 31 30 28 26 23 20 18 16 15 15 15 13 13 12 10 10 10 10 10 10 10 10 10 10 10 10 10 10 10 10 10 11 13 15 15
13 13 13 13 13 14 14 18 25 31 34 36 38 39 39 40 40 40 41 43 44 44 42 40 38 37 35 34 33 32 30 27 24 21 19 17 15 16 16 15 15 13 11 11 11 11 12 11 11 11 11 11 11 11 10 10 10 10 10 11 13 14 15
14 13 14 14 14 15 16 19 27 33 35 36 36 35 35 36 38 39 39 40 41 40 40 40 39 37 36 35 34 33 31 28 25 22 20 18 16 17 17 16 15 12 12 13 13 13 13 13 14 13 13 12 11 10 10 11 11 11 11 11 12 13 14
14 14 15 16 17 17 17 19 25 31 32 31 31 32 34 35 36 37 38 39 39 39 40 41 39 38 37 35 34 33 31 29 26 23 21 19 18 18 17 16 14 13 13 15 15 15 15 15 15 14 13 11 10 10 10 12 13 12 12 12 13 14 15
14 15 16 17 17 17 16 18 24 28 29 29 31 32 34 35 36 37 37 38 37 37 38 39 38 37 36 35 34 33 32 30 27 25 22 20 19 19 18 16 14 14 15 17 18 18 17 16 15 13 13 12 12 11 12 13 13 13 14 15 16 17 17
13 14 15 16 17 16 14 17 21 23 24 27 29 30 33 34 34 35 35 36 36 37 38 37 35 34 33 33 34 34 33 30 27 26 24 22 21 20 19 16 14 14 16 18 19 19 18 17 16 15 14 13 12 12 12 13 14 14 15 15 15 15 14
13 14 14 15 16 15 15 15 16 17 21 25 27 29 32 33 34 35 36 37 37 37 37 35 34 33 32 33 34 34 34 31 28 28 27 24 22 21 19 17 15 16 17 19 19 19 19 18 17 16 15 14 12 12 13 14 14 14 14 13 13 13 14
11 13 15 17 17 16 16 15 14 16 20 25 27 29 31 32 34 35 37 38 38 38 37 35 34 33 33 34 35 35 35 32 30 31 28 25 23 22 20 18 17 18 20 20 20 19 18 17 17 18 18 15 13 13 14 13 12 13 13 13 14 15 16
11 12 14 16 15 14 14 13 14 16 20 25 28 30 33 34 35 36 36 38 39 39 39 36 35 35 35 35 36 36 36 33 32 32 29 25 25 24 22 19 19 20 21 20 19 17 17 17 17 17 16 15 13 14 14 13 12 13 13 14 15 16 16
12 12 11 11 11 13 14 14 15 16 20 26 30 31 33 35 37 39 39 40 40 39 39 37 37 37 37 37 37 35 33 30 30 32 28 26 26 25 22 21 20 22 23 21 18 17 16 16 15 14 13 13 14 15 14 13 13 14 13 14 15 15 16
11 11 11 11 12 13 14 15 16 16 19 25 29 31 32 33 36 37 38 40 40 40 40 39 39 38 39 39 37 33 32 31 33 33 28 27 28 26 23 21 21 22 23 21 19 18 18 17 16 15 15 15 15 15 14 14 14 14 13 13 14 14 15
10 10 12 13 13 14 15 16 17 17 18 22 27 31 32 32 34 36 38 38 39 41 41 41 40 40 41 41 38 35 36 35 35 34 31 30 29 26 23 22 22 23 23 22 21 20 20 19 18 17 18 17 16 16 16 15 15 14 13 13 13 14 15
10 10 10 11 10 11 12 13 14 15 16 20 27 32 32 33 36 38 38 37 39 42 42 42 42 41 39 38 36 37 38 36 34 36 36 33 31 28 24 23 24 25 24 23 23 22 20 19 19 19 19 19 19 17 16 16 16 15 13 13 14 15 15
10 10 10 10 10 11 11 11 11 12 14 20 27 30 33 35 36 35 36 37 40 42 41 40 38 35 34 35 33 32 32 31 34 38 38 35 32 28 25 25 26 27 25 25 24 23 21 20 20 20 20 21 21 19 18 18 18 16 15 15 14 14 14
9 9 9 10 10 11 12 11 11 13 17 21 26 30 34 34 33 35 38 39 40 38 37 37 37 36 38 39 35 31 28 28 36 38 37 36 32 28 27 28 28 28 27 25 24 23 21 21 22 23 23 22 22 21 19 19 19 17 16 16 13 13 15
9 9 9 9 10 11 12 11 12 17 22 25 28 32 35 35 36 38 38 37 37 38 38 37 37 38 37 35 34 34 31 31 36 37 36 35 33 30 30 31 30 28 26 25 25 24 23 23 24 25 25 25 24 24 21 20 20 18 17 16 14 14 17
8 9 9 9 9 10 11 10 12 16 20 25 28 29 30 32 33 33 33 34 35 33 31 30 29 29 29 29 29 28 27 30 32 33 35 35 33 33 33 34 32 30 27 27 26 25 25 25 25 26 26 23 21 22 22 22 20 19 17 16 15 15 16
9 9 9 9 9 10 12 13 16 20 23 27 29 28 28 31 33 33 29 24 19 16 19 24 24 23 21 21 20 16 19 26 31 34 36 34 34 35 35 35 34 31 29 28 28 27 27 26 25 25 22 17 17 22 24 22 20 17 16 14 13 14 14
9 8 7 7 6 9 13 17 21 24 25 26 25 25 26 27 26 23 17 18 20 23 28 30 27 23 19 17 13 10 19 27 33 36 36 34 34 36 36 36 34 31 30 29 30 30 26 21 19 19 17 15 18 22 23 20 17 15 15 14 13 13 12
6 7 7 5 5 7 11 15 17 17 17 17 17 19 19 16 15 17 23 27 30 33 34 31 27 27 27 22 15 16 25 32 34 35 35 35 36 37 38 37 33 31 30 30 30 25 18 13 13 13 14 15 15 17 18 16 15 16 16 16 15 14 12
4 6 10 13 13 13 14 15 15 14 15 16 16 16 16 16 20 25 27 28 32 34 32 30 28 30 31 25 21 25 31 34 33 32 33 36 38 38 38 36 33 32 29 26 24 20 15 12 11 13 17 17 13 14 17 16 16 16 15 15 15 14 12
5 5 7 11 15 16 17 19 20 19 19 20 20 19 20 23 27 29 28 28 30 30 32 34 34 33 33 29 27 32 37 37 34 33 35 37 38 38 37 35 33 29 22 19 18 15 11 8 8 11 16 18 15 17 19 17 14 13 13 14 15 14 13
4 4 4 8 12 14 15 16 19 21 23 25 26 24 25 28 30 30 31 31 29 30 35 37 34 30 32 33 33 37 41 40 36 35 37 39 39 37 34 30 26 21 16 13 11 7 3 3 6 9 15 17 17 18 17 13 11 11 12 14 14 14 12
5 5 4 6 8 11 13 14 17 21 24 27 30 30 30 32 31 30 30 30 31 35 37 34 27 26 33 38 38 40 42 40 36 37 39 39 35 29 23 19 15 11 10 10 9 5 2 5 10 13 14 14 14 14 12 9 10 11 12 12 12 12 11
1 1 4 4 4 9 13 14 15 19 23 28 31 31 33 32 29 27 27 28 33 36 32 25 22 25 31 32 32 38 42 40 36 35 33 29 24 19 14 13 13 14 13 12 9 2 5 8 11 13 13 12 12 11 9 9 10 12 12 11 11 11 9
3 4 5 4 3 9 13 15 17 18 21 26 29 31 33 32 29 27 28 32 35 34 28 23 21 22 24 23 25 31 33 29 24 21 18 16 15 15 17 19 18 13 7 5 4 7 8 7 12 13 12 10 9 8 7 8 10 12 12 12 11 9 8
5 5 5 5 5 4 5 9 17 20 20 23 27 28 26 23 21 19 17 21 25 27 28 25 19 17 18 18 18 16 12 8 5 6 9 12 16 19 20 18 15 10 7 6 9 11 9 13 13 10 8 7 6 5 6 7 9 11 11 11 10 8 7
4 4 5 6 7 6 3 4 10 16 15 14 14 11 8 10 12 13 12 10 8 9 18 21 17 15 15 13 11 9 8 7 4 5 9 13 16 16 13 10 9 10 9 9 10 10 12 14 10 7 7 6 5 5 8 10 10 11 11 10 9 8 7
2 1 4 7 9 11 9 7 7 10 11 11 11 13 15 17 18 17 15 12 9 7 9 16 19 18 17 17 15 10 4 3 5 8 11 12 12 11 9 8 8 11 12 13 14 13 12 10 8 8 8 7 7 8 10 12 12 12 12 10 10 9 9
4 3 0 5 10 13 15 13 10 12 16 17 19 21 21 22 23 22 22 22 20 20 22 21 18 16 15 12 9 7 4 4 5 7 11 13 12 11 11 11 11 12 13 14 13 12 11 10 9 8 8 8 9 10 12 13 13 13 12 11 10 10 9
4 3 1 2 6 11 15 16 17 19 20 20 25 29 30 31 30 28 28 28 26 25 25 22 20 19 17 9 4 5 5 2 5 12 16 16 14 12 11 12 13 14 14 14 13 12 11 9 8 7 7 8 9 11 13 14 14 13 11 10 9 9 9
3 1 3 5 6 9 13 18 22 25 23 23 27 32 32 32 31 29 29 28 27 26 25 19 16 17 13 7 4 4 2 11 17 20 21 19 16 15 14 14 14 14 14 14 13 11 9 8 6 6 7 7 8 10 12 13 12 11 9 9 9 8 7
6 6 8 10 11 13 15 18 23 26 26 25 28 31 31 30 29 27 24 20 17 16 16 11 4 1 3 7 8 10 17 24 25 23 22 21 19 19 19 17 15 13 12 12 11 9 7 6 5 5 5 5 6 8 9 9 9 8 8 8 8 7 5
9 11 12 12 14 17 18 19 22 25 26 27 29 29 26 22 17 14 13 14 12 9 6 6 13 19 21 22 24 25 27 29 28 25 24 23 21 22 22 20 18 15 12 11 10 8 6 5 4 4 5 5 6 7 7 7 7 7 7 7 7 7 6
Wind_Direction
184 187 188 186 184 184 183 182 181 181 183 183 183 184 185 187 189 190 191 193 195 195 195 195 196 199 201 202 205 206 203 204 203 201 202 206 211 212 210 211 212 214 216 214 213 215 218 228 243 250 245 243 260 281 288 291 300 309 315 316 314 311 306
184 187 187 186 187 187 186 183 182 183 184 185 185 184 185 187 188 189 190 192 194 195 195 197 199 201 202 203 204 203 202 205 203 204 210 212 212 213 213 215 219 222 222 221 223 227 233 240 240 236 237 246 262 276 281 287 296 304 309 310 309 305 299
183 186 186 187 188 188 187 184 184 186 186 186 186 185 186 188 189 189 190 191 193 195 196 197 200 201 201 202 202 202 202 205 205 207 212 210 209 211 212 219 225 224 224 226 227 227 229 232 230 232 242 253 267 277 281 287 295 302 306 308 308 305 301
184 186 185 187 189 188 186 184 185 187 189 189 189 188 189 190 190 190 190 191 191 193 195 197 200 200 200 199 200 202 202 205 208 210 211 212 214 213 214 221 222 221 228 227 222 220 224 229 232 241 253 260 269 275 280 289 296 300 303 305 307 308 309
182 184 182 184 186 187 188 188 188 189 191 193 192 192 192 191 190 190 190 191 192 194 197 198 198 198 198 198 200 202 203 205 208 210 210 212 213 212 212 214 212 218 228 224 223 226 228 236 244 249 256 260 269 277 283 290 294 297 299 301 304 305 308
179 180 180 183 184 190 192 190 191 191 192 194 195 194 193 190 190 190 191 192 193 194 196 197 197 197 196 197 200 203 204 205 208 210 210 208 208 209 210 211 210 221 234 234 236 236 234 244 250 251 257 265 274 279 283 288 291 296 297 297 301 301 302
180 179 179 183 186 191 193 193 195 195 194 194 194 193 192 190 190 190 191 192 193 193 193 195 197 197 196 196 199 202 203 206 208 208 208 208 210 211 210 210 213 226 241 241 241 241 242 250 254 257 264 270 277 281 285 290 293 299 300 297 296 295 297
177 176 179 186 190 191 192 195 196 195 194 192 191 191 191 190 190 190 192 193 193 192 193 195 196 196 196 195 197 202 205 206 207 206 206 209 212 212 210 210 218 231 237 237 240 245 250 256 257 260 264 266 274 282 289 295 296 298 299 296 294 291 291
177 183 186 188 192 193 193 195 194 191 190 190 189 190 190 189 190 191 192 192 191 193 194 196 196 194 194 193 195 202 206 206 205 204 205 207 211 213 213 216 224 231 234 237 242 246 251 255 255 257 261 264 271 277 284 291 292 294 296 295 295 293 291
179 189 191 190 193 196 195 193 191 188 188 189 188 189 189 189 191 191 191 191 191 193 195 196 195 193 191 192 196 202 204 204 205 205 204 206 211 216 219 220 221 226 233 240 244 249 254 255 254 255 260 265 271 276 281 285 288 294 297 296 297 294 291
182 185 189 195 197 197 194 190 189 188 188 187 186 187 188 188 189 189 190 192 192 193 194 194 193 191 190 192 197 202 202 200 204 207 205 206 212 219 222 220 219 226 235 241 246 253 257 256 254 254 255 258 265 273 279 285 289 294 294 294 296 297 295
181 181 186 196 197 196 194 190 190 187 186 185 185 186 187 187 189 189 191 192 192 192 193 192 191 189 189 192 196 201 200 198 203 206 205 207 213 219 221 218 221 229 237 242 247 251 251 250 250 249 250 253 260 270 279 283 284 285 285 289 294 297 298
177 183 190 195 193 193 192 189 189 185 183 186 186 186 186 187 188 189 191 192 193 192 192 191 189 188 188 191 196 200 198 196 201 204 204 208 214 218 221 220 223 230 237 241 241 240 240 241 241 243 250 256 264 274 277 276 279 282 284 288 292 295 295
173 183 191 192 188 187 186 188 190 187 186 186 186 187 188 188 189 190 191 192 192 192 191 190 188 187 188 191 197 198 192 191 203 208 206 209 214 217 221 222 226 233 237 236 233 235 238 237 239 246 255 261 267 271 269 270 280 286 288 289 290 290 289
169 182 185 185 187 187 187 189 189 188 190 188 187 187 187 189 191 191 193 193 192 192 191 189 187 187 188 192 196 194 186 190 205 210 208 211 213 215 218 221 227 232 232 231 234 241 242 242 249 257 260 260 264 266 265 270 279 282 285 289 287 285 284
167 182 186 187 191 189 189 192 189 189 191 188 188 189 188 190 192 193 195 194 191 192 192 189 187 187 190 193 193 191 189 195 204 207 207 210 212 213 214 217 224 228 228 231 239 243 243 247 254 257 257 259 261 264 264 266 274 281 286 287 285 284 283
168 175 184 189 196 198 199 199 196 194 191 189 191 191 189 191 193 195 196 194 193 195 193 190 189 189 190 191 191 191 190 194 204 207 206 207 211 213 212 215 222 226 229 235 240 241 243 249 252 251 254 257 257 259 261 262 266 274 280 280 282 285 283
168 168 180 186 194 202 205 204 202 201 199 197 195 193 193 195 195 196 196 195 197 197 194 191 190 187 187 188 191 192 188 194 208 208 205 207 210 210 212 217 222 225 229 234 237 240 244 249 251 251 253 254 253 254 255 257 260 263 269 275 279 284 284
162 167 181 186 190 196 200 202 202 202 203 200 197 197 199 198 196 199 200 199 199 197 194 191 187 184 185 186 187 186 188 205 215 210 205 208 210 210 214 217 220 224 228 233 237 240 244 248 251 252 254 253 251 251 253 256 256 258 267 272 273 279 286
160 167 180 187 190 194 197 199 199 200 202 202 201 201 201 200 201 203 202 200 199 198 195 191 186 184 181 178 177 181 192 212 216 210 209 212 210 211 215 217 219 223 227 233 237 239 242 246 248 251 255 254 250 249 252 254 252 255 264 266 266 277 286
169 172 179 185 188 194 198 196 192 193 198 202 205 205 204 204 204 204 203 202 201 199 192 183 176 170 163 161 167 179 199 214 213 210 213 214 211 212 215 218 220 223 227 232 235 237 241 244 247 251 254 256 259 259 257 254 250 254 262 263 266 278 282
182 181 182 184 185 191 196 193 190 191 195 199 202 205 207 208 207 206 204 195 180 164 154 149 142 134 135 147 159 180 214 217 211 213 217 215 212 213 216 219 220 223 227 229 232 238 242 243 248 253 255 263 277 274 262 252 249 255 259 260 266 274 272
182 178 182 192 189 186 189 193 194 196 197 197 198 202 207 210 210 199 171 138 131 136 140 140 136 135 143 153 161 210 236 222 209 213 219 216 212 213 216 219 222 225 228 229 233 237 239 243 249 253 258 274 281 267 252 244 248 253 251 251 257 260 256
173 153 140 131 117 133 164 182 189 192 190 186 189 198 203 200 184 154 136 139 148 151 150 150 154 160 166 169 181 218 230 221 213 216 220 215 212 214 216 219 223 229 231 231 233 235 233 236 244 250 263 280 280 257 242 243 253 254 249 250 252 248 248
128 124 126 128 126 128 137 146 151 157 164 166 170 182 183 168 150 140 139 148 154 153 156 165 173 174 171 173 186 203 213 218 222 223 220 215 213 214 217 222 228 233 232 229 230 233 231 235 255 274 274 272 268 253 248 253 257 254 251 249 244 240 247
127 129 131 128 128 130 129 129 132 139 150 157 161 168 169 160 150 144 145 153 158 163 171 181 188 186 178 179 189 196 205 219 229 229 223 218 217 218 222 226 230 230 227 224 229 235 236 245 280 283 260 249 248 247 247 250 249 245 242 238 234 238 248
101 110 125 129 133 137 137 137 142 149 158 163 164 169 171 165 159 157 159 165 173 181 186 192 196 189 182 188 194 195 202 218 230 228 223 221 222 223 224 226 230 229 222 217 219 218 212 276 290 260 238 236 241 237 234 236 237 234 236 238 238 240 245
26 30 80 122 139 145 139 138 146 154 162 168 169 174 177 173 170 170 171 176 187 193 195 199 200 193 192 197 196 193 202 217 225 222 221 222 223 222 220 223 223 209 185 173 164 142 38 313 276 248 231 225 222 220 222 228 232 234 238 241 240 239 242
80 56 86 103 159 166 151 145 151 158 164 170 174 179 181 178 174 172 175 186 196 199 199 202 207 205 202 201 199 200 206 214 218 217 218 221 220 211 197 183 166 151 145 146 147 119 332 295 250 221 203 197 200 210 223 226 228 235 238 238 238 241 247
38 72 79 79 162 177 165 156 158 164 169 173 177 182 185 183 179 177 184 197 202 200 199 200 203 199 191 191 203 211 211 210 212 216 220 223 215 193 171 159 155 157 163 182 231 284 287 237 203 189 183 194 207 213 220 222 227 232 234 234 239 244 253
34 56 68 80 120 168 202 180 165 164 171 178 182 184 186 186 181 177 191 210 211 204 200 198 191 178 174 184 201 204 192 178 189 214 218 209 194 180 170 167 175 199 237 255 262 264 230 184 177 184 195 213 228 227 228 231 229 227 227 230 237 243 256
45 75 94 108 131 154 224 221 169 158 160 169 173 162 124 92 82 64 31 349 307 241 210 197 177 153 147 149 142 121 90 69 83 137 164 171 173 176 179 184 195 211 225 224 215 205 185 173 178 200 213 230 251 241 230 230 227 224 223 226 232 243 261
315 170 140 146 156 159 161 166 155 133 116 105 102 95 87 87 89 79 63 51 45 61 119 136 129 117 113 113 112 107 81 63 109 137 152 160 168 176 178 176 181 189 195 191 181 176 177 185 199 212 218 232 240 228 223 228 230 229 229 232 240 251 268
294 316 174 160 161 157 153 150 136 111 98 100 111 114 110 106 102 93 82 79 78 73 72 76 76 70 69 88 119 135 113 88 117 163 178 176 171 167 163 165 175 180 182 181 180 184 191 198 210 221 227 231 228 222 223 230 234 235 236 239 246 259 275
299 329 346 148 153 156 151 140 123 109 104 108 118 119 111 101 96 92 84 76 71 66 54 37 24 24 29 39 79 81 59 75 201 200 191 179 170 165 163 168 177 180 179 181 186 194 202 208 220 233 240 240 235 229 227 232 236 235 235 241 252 264 273
248 209 159 150 147 149 142 130 121 115 111 109 111 111 108 102 100 102 99 86 73 67 62 44 21 16 17 15 27 25 262 216 204 194 185 177 171 167 163 163 170 176 177 180 185 193 205 216 228 239 244 244 239 232 231 237 240 234 233 251 263 260 255
201 183 174 167 153 139 128 122 122 121 116 113 112 111 109 107 105 104 102 93 80 75 74 67 48 62 181 199 217 230 219 205 194 185 179 175 173 171 166 161 162 168 175 180 184 189 199 212 222 229 230 230 227 224 225 230 235 236 245 261 258 238 223
214 193 177 164 149 139 132 129 130 130 129 128 126 123 121 119 117 124 142 153 162 168 167 198 211 205 199 201 210 212 204 193 186 181 177 174 173 173 171 165 158 158 164 172 177 180 187 199 211 210 206 207 212 215 216 219 227 238 247 246 230 214 203
Height
750 752 754 756 758 759 760 763 766 769 772 774 776 778 781 784 787 790 791 793 795 796 798 800 802 804 805 807 808 809 810 811 812 814 815 816 817 818 820 820 821 822 822 822 823 823 824 824 825 826 826 826 826 825 825 824 824 824 824 824 824 824 824
749 752 753 755 757 757 758 759 762 765 768 770 772 774 777 779 782 784 786 789 791 792 794 796 798 800 802 804 806 807 808 809 810 811 813 814 815 816 817 819 819 820 820 821 821 822 822 823 824 824 825 825 825 825 824 824 824 824 824 824 823 823 823
747 749 750 752 753 753 755 757 760 762 764 766 768 770 772 773 775 778 780 783 786 788 791 793 794 796 798 801 803 804 805 806 808 809 810 811 813 814 815 817 818 818 819 819 820 820 821 822 822 823 824 824 824 824 823 823 823 823 823 823 822 822 822
743 744 745 748 749 750 752 753 756 758 760 761 762 764 765 767 769 772 774 777 781 783 785 787 790 792 795 797 800 801 802 804 805 806 808 810 811 812 813 815 816 817 818 818 819 819 820 821 821 822 823 823 823 823 823 822 822 822 822 821 821 821 820
741 742 745 748 749 751 751 751 753 755 757 758 759 760 761 763 766 769 771 773 775 778 780 783 786 788 791 793 796 799 800 801 803 804 806 808 809 811 812 813 815 816 817 818 818 819 819 820 820 821 821 822 822 822 822 822 821 821 820 820 820 819 819
740 741 743 745 747 748 747 747 749 750 752 753 755 757 759 762 765 766 769 771 773 776 779 782 785 786 788 791 793 796 798 800 801 803 804 806 808 809 810 811 813 814 816 817 818 818 819 819 820 820 820 820 821 821 821 820 820 819 819 819 818 818 818
735 736 739 740 741 743 743 744 745 745 747 749 752 755 758 760 763 764 767 769 771 774 776 778 781 783 786 788 791 795 797 799 800 802 803 805 806 808 808 809 810 812 814 815 816 817 818 818 819 818 819 819 819 819 819 819 818 818 818 817 817 817 816
730 732 734 735 734 736 737 738 739 742 744 748 751 753 755 758 760 762 764 766 769 771 773 774 777 780 783 786 790 794 796 797 799 800 802 803 805 806 806 807 808 809 812 813 814 816 816 817 817 817 817 817 817 818 818 818 817 817 816 816 815 815 815
726 727 727 728 728 730 731 731 734 738 741 745 747 749 752 754 756 758 760 763 766 768 770 772 775 778 782 785 789 792 794 795 797 798 799 801 803 805 805 804 805 807 809 810 812 813 814 815 816 816 816 816 816 816 816 816 816 815 815 814 814 813 813
723 724 724 724 724 725 726 728 732 736 738 741 744 746 749 751 754 756 758 761 763 765 767 770 773 777 780 784 787 790 792 793 795 797 797 799 801 803 804 803 803 805 806 808 809 811 812 813 813 814 813 813 814 814 814 814 814 814 813 812 812 811 810
719 721 722 723 722 722 725 728 730 733 735 738 741 743 746 748 751 753 755 757 759 762 765 768 771 775 778 782 785 787 789 791 794 795 795 796 799 802 802 802 802 803 804 805 807 808 809 810 811 811 811 811 812 812 812 812 812 812 811 810 809 809 808
717 718 720 721 720 721 723 725 727 729 731 735 737 740 742 745 747 749 751 753 755 758 762 765 769 772 775 779 782 784 786 787 790 792 792 793 796 799 800 800 800 801 802 803 804 806 807 808 808 808 809 809 810 810 810 810 810 809 809 808 807 806 806
714 715 716 716 716 719 721 724 726 727 729 732 734 736 739 741 743 746 748 750 752 755 758 761 765 768 772 776 778 780 782 785 788 789 789 790 794 796 797 797 798 799 800 801 802 803 804 805 806 806 807 808 808 808 808 808 808 808 807 807 806 805 804
713 714 715 715 717 719 720 723 724 724 726 728 730 733 735 737 739 741 743 745 748 751 754 757 761 764 768 772 774 777 780 787 791 790 787 788 791 793 794 794 795 797 798 799 800 801 802 803 804 805 806 807 807 806 806 806 806 806 806 805 804 803 802
713 714 715 716 717 717 718 719 720 721 722 723 726 729 731 734 736 738 740 741 744 747 749 752 756 760 764 767 769 773 777 782 786 786 786 787 788 790 791 791 793 795 796 797 798 799 800 801 802 803 804 805 805 804 804 804 804 804 804 803 803 802 801
713 713 714 714 714 714 714 715 715 716 718 720 724 726 727 731 733 735 737 738 740 742 744 748 752 754 758 760 763 767 771 775 779 781 782 784 786 787 787 788 791 793 794 795 796 797 798 799 800 801 802 802 802 802 802 802 802 801 801 801 801 800 799
710 712 713 712 713 713 713 713 714 714 716 718 720 721 724 726 728 730 733 735 737 738 739 744 747 750 754 757 761 764 767 772 778 779 779 780 782 783 784 786 788 790 792 792 794 795 796 797 797 798 799 799 799 799 799 799 799 799 799 799 799 798 797
707 709 710 710 711 712 713 714 715 715 715 715 717 719 721 722 724 728 730 732 733 734 737 741 745 750 754 757 763 769 772 775 777 776 775 777 778 780 782 784 786 788 789 790 791 792 793 794 794 795 795 795 795 795 795 795 795 796 796 796 796 796 795
703 705 705 707 709 710 711 711 711 712 713 714 715 717 718 720 723 725 726 727 730 732 735 739 742 746 749 751 759 769 775 777 776 774 774 774 775 777 779 781 783 785 786 787 788 790 790 791 791 792 792 793 792 792 792 792 793 793 794 793 793 793 792
702 703 703 705 705 706 707 707 708 709 710 712 713 714 717 719 720 721 723 726 728 729 732 735 739 742 745 750 757 764 770 772 773 773 773 773 773 775 776 778 780 781 783 784 786 786 787 788 788 789 789 789 789 789 789 790 790 790 791 790 790 790 789
699 701 703 703 703 702 702 703 704 707 708 711 713 715 717 719 720 722 724 726 728 730 733 736 740 744 748 752 756 761 766 769 771 773 772 771 772 773 773 775 776 778 780 781 782 782 783 784 785 785 786 787 788 790 789 788 788 788 788 788 788 787 787
696 698 698 698 698 698 698 699 701 703 705 707 711 714 717 719 719 721 724 728 732 736 739 742 745 750 753 755 756 760 764 767 769 770 770 770 770 770 770 771 772 774 775 777 778 778 779 780 782 783 783 785 788 789 788 786 785 785 785 785 785 785 785
691 692 692 692 694 694 695 697 698 700 703 705 709 713 715 718 720 723 726 730 732 735 737 739 742 747 752 755 757 762 767 767 765 764 766 767 767 767 767 768 768 769 771 773 774 775 777 778 779 780 781 781 783 784 783 783 783 783 783 783 783 783 782
688 688 689 690 692 692 694 696 698 700 704 707 709 712 714 717 721 724 726 727 726 729 732 735 738 741 745 750 755 761 765 763 759 760 762 763 763 763 763 764 765 766 768 770 771 773 774 775 776 778 778 777 779 780 781 781 780 780 780 780 780 780 780
688 687 688 689 690 691 692 695 697 700 703 706 708 711 713 716 719 721 724 725 725 727 730 734 739 740 741 744 748 756 760 758 755 756 759 759 759 759 760 761 762 764 766 768 769 770 772 773 775 777 776 776 778 780 780 779 778 778 778 778 778 778 778
689 689 690 689 690 691 692 693 695 698 701 704 707 709 711 714 716 719 722 724 725 725 725 729 734 736 737 739 744 753 757 755 752 753 755 755 755 756 757 759 760 762 764 766 767 769 770 771 773 774 774 774 775 777 777 777 776 776 776 776 776 776 776
689 691 691 691 690 691 691 693 694 696 699 701 704 707 709 711 713 716 717 719 720 719 719 723 728 732 736 740 744 750 752 750 749 750 751 752 752 753 755 757 759 761 763 764 766 767 768 770 772 773 772 772 772 773 775 775 775 774 774 774 774 774 773
691 691 692 692 691 691 692 693 694 696 698 699 701 703 705 707 709 710 713 714 713 713 715 721 727 731 735 739 742 744 745 745 746 747 748 749 750 752 755 756 759 760 761 763 765 766 768 770 770 771 771 770 771 772 773 773 773 772 772 772 772 772 772
692 691 692 693 693 692 692 693 695 696 697 698 700 701 702 703 705 707 709 709 708 711 717 721 725 729 732 736 739 742 742 742 743 744 746 748 749 752 754 756 758 759 760 761 763 764 766 767 768 769 770 770 770 771 771 771 771 770 770 771 771 771 770
692 692 692 693 694 694 693 693 694 696 698 698 699 700 700 701 702 703 704 704 706 711 716 720 724 728 731 736 743 746 744 742 743 744 745 747 749 751 753 755 756 757 759 760 761 762 763 765 767 769 769 769 769 769 769 769 768 768 769 769 769 769 768
693 693 693 693 695 696 697 696 694 695 698 699 699 701 702 703 704 707 709 710 711 713 715 718 723 726 730 739 746 747 744 742 743 744 745 747 749 750 752 754 755 756 758 759 760 761 763 765 767 767 767 768 768 767 767 767 766 766 767 767 767 767 767
694 694 694 694 695 696 699 700 699 698 700 702 705 708 710 712 713 717 720 721 722 722 720 720 723 726 732 739 743 742 742 743 743 745 747 749 750 751 752 753 754 755 757 759 759 761 763 764 765 765 766 766 766 766 765 765 764 765 765 765 766 766 766
696 694 693 694 694 695 698 701 703 703 705 708 711 712 714 715 716 719 722 724 728 732 731 729 730 732 734 736 738 740 742 743 743 745 748 749 750 751 752 752 753 755 757 758 759 760 762 763 763 764 764 764 764 764 764 763 763 763 763 764 764 764 764
697 696 695 695 695 696 698 700 704 706 707 709 710 711 714 716 718 721 725 728 731 736 738 739 739 739 737 736 738 740 741 741 743 745 748 749 750 750 751 752 754 755 756 757 758 759 760 761 762 762 763 763 763 762 762 762 761 761 761 762 762 763 763
698 698 698 698 698 698 699 701 704 706 708 709 710 711 714 717 719 722 725 728 729 731 736 740 741 740 738 737 738 739 740 742 745 746 747 748 749 750 751 753 754 755 755 757 758 758 759 760 760 761 761 761 761 761 760 760 760 760 760 761 761 761 761
699 699 699 700 701 701 701 703 704 706 709 711 711 712 714 717 719 720 721 724 726 728 733 740 743 743 743 742 742 743 745 746 747 747 747 748 748 749 751 753 754 755 756 756 757 758 758 758 758 759 759 759 759 759 759 759 759 759 760 760 760 760 760
699 699 699 700 701 702 704 706 707 707 711 713 713 714 715 717 720 721 722 726 729 729 733 742 747 747 745 745 746 747 747 746 746 746 746 747 747 749 750 752 754 755 755 756 756 757 757 757 757 757 757 758 758 758 758 758 758 759 759 759 759 760 760
699 698 699 700 701 703 705 706 707 708 710 712 713 714 715 717 718 719 720 724 726 727 729 736 741 742 741 740 740 741 742 743 743 744 744 745 747 748 749 750 752 754 755 755 755 755 755 755 756 756 756 757 757 757 757 758 758 758 758 758 758 759 759